Regional Weather Roundup
Issued by NWS

Home | Current Version | Previous Version | Graphics & Text | Print | Product List | Glossary On
Versions: 1 2 3 4 5 6 7 8 9 10 11 12 13 14 15 16 17 18 19 20 21 22 23 24 25 26 27 28 29 30 31 32 33 34 35 36 37 38 39 40 41 42 43 44 45 46 47 48 49 50
000
ASUS43 KMKX 261200
RWRWI

WISCONSIN REGIONAL WEATHER ROUNDUP
NATIONAL WEATHER SERVICE MILWAUKEE/SULLIVAN WI
700 AM CDT SUN APR 26 2015

NOTE: "FAIR" INDICATES FEW OR NO CLOUDS BELOW 12,000 FEET WITH NO
SIGNIFICANT WEATHER AND/OR OBSTRUCTIONS TO VISIBILITY.

WIZ001-002-006>008-014>016-023>028-261300-
NORTHWEST WISCONSIN

CITY           SKY/WX    TMP DP  RH WIND       PRES   REMARKS
SUPERIOR ARPT  FAIR      22  21  96 CALM      30.14R
ASHLAND        CLEAR     27  25  92 W3        30.13R
6HR MIN TEMP:  21; 6HR MAX TEMP:  28;

HAYWARD        CLEAR     27  23  85 N6        30.09R WCI  20
6HR MIN TEMP:  25; 6HR MAX TEMP:  32;

SIREN          CLEAR     26  22  85 CALM      30.10R
CUMBERLAND     CLEAR     30  21  69 CALM      30.07R
RICE LAKE      CLEAR     31  24  73 N3        30.09R
CHETEK         CLEAR     30  23  75 CALM      30.08R
LADYSMITH      CLEAR     30  24  75 N3        30.09R
EAU CLAIRE     NOT AVBL
MENOMONIE      CLEAR     32  24  71 N5        30.07R WCI  27
NEW RICHMOND   CLEAR     30  22  73 NE5       30.07R WCI  25
OSCEOLA        CLEAR     29  22  76 CALM      30.11R
$$

WIZ003>005-009-010-017-018-261300-
NORTH CENTRAL WISCONSIN

CITY           SKY/WX    TMP DP  RH WIND       PRES   REMARKS
MANITOWISH WTR SUNNY     24  22  94 CALM      30.06R
ARBOR VITAE    SUNNY     25  19  79 CALM      30.06R
WOODRUFF       SUNNY     25  19  79 CALM      30.06R
RHINELANDER    SUNNY     30  21  69 N3        30.06R
6HR MIN TEMP:  26; 6HR MAX TEMP:  33;

EAGLE RIVER    SUNNY     27  18  69 CALM      30.06R
LAND O LAKES   SUNNY     24  21  90 CALM      30.07R
PHILLIPS       CLEAR     26  20  78 CALM      30.07R
TOMAHAWK       SUNNY     26  21  81 CALM      30.07R
MEDFORD        CLEAR     30  22  73 NE7       30.05R WCI  23
MERRILL        SUNNY     27  21  79 CALM      30.06R
$$

WIZ029-030-035-036-043>047-261300-
CENTRAL WISCONSIN

CITY           SKY/WX    TMP DP  RH WIND       PRES   REMARKS
WAUSAU         SUNNY     33  22  63 NW5       30.05R WCI  29
6HR MIN TEMP:  32; 6HR MAX TEMP:  37;

MOSINEE        SUNNY     32  19  59 N5        30.05R WCI  27
MARSHFIELD     CLEAR     35  21  56 NE9       30.05R WCI  28
6HR MIN TEMP:  32; 6HR MAX TEMP:  38;

STEVENS POINT  SUNNY     24  19  78 CALM      30.05R
WAUPACA        SUNNY     32  22  67 CALM      30.05R
WAUTOMA        NOT AVBL
WISC RAPIDS    CLEAR     35  20  54 NE7       30.06R WCI  29
6HR MIN TEMP:  31; 6HR MAX TEMP:  39;

CAMP DOUGLAS   NOT AVBL
$$

WIZ011>013-019>022-031-037>040-048>050-261300-
NORTHEAST WISCONSIN

CITY           SKY/WX    TMP DP  RH WIND       PRES   REMARKS
ANTIGO         SUNNY     29  22  75 N7        30.04S WCI  22
SHAWANO        SUNNY     35  19  52 CALM      30.05R
OCONTO         SUNNY     32  21  64 CALM      30.04S
STURGEON BAY   SUNNY     36  25  64 N8        30.06R WCI  29
6HR MIN TEMP:  32; 6HR MAX TEMP:  36;

GREEN BAY      SUNNY     35  22  58 N7        30.04R WCI  29
6HR MIN TEMP:  31; 6HR MAX TEMP:  40;

MANITOWOC      NOT AVBL
APPLETON       SUNNY     32  19  59 N8        30.04R WCI  25
CLINTONVILLE   SUNNY     32  21  64 CALM      30.04R
OSHKOSH        SUNNY     34  23  64 N8        30.04R WCI  27
6HR MIN TEMP:  30; 6HR MAX TEMP:  42;

$$

WIZ032>034-041-042-053>061-261300-
SOUTHWEST WISCONSIN

CITY           SKY/WX    TMP DP  RH WIND       PRES   REMARKS
LA CROSSE      CLEAR     35  26  69 CALM      30.05R
6HR MIN TEMP:  29; 6HR MAX TEMP:  41;

SPARTA         CLEAR     24  19  84 CALM      30.05R
VIROQUA        CLEAR     32  22  67 NE5       30.02R WCI  27
BOSCOBEL       CLEAR     28  24  85 CALM      30.04R
6HR MIN TEMP:  25; 6HR MAX TEMP:  32;

PRAIRIE DU CHI FAIR      29  24  81 CALM      30.03R
PLATTEVILLE    CLEAR     35  25  66 NE9       29.99R WCI  27
$$

WIZ056-057-062-063-064-067-068-261300-
SOUTH CENTRAL WISCONSIN

CITY           SKY/WX    TMP DP  RH WIND       PRES   REMARKS
REEDSBURG      CLEAR     29  22  75 CALM      30.03R
BARABOO/DELLS  CLEAR     32  22  65 CALM      30.03R
LONE ROCK      NOT AVBL
MINERAL POINT  CLEAR     36  27  69 NE8       29.99R WCI  29
MADISON        MOSUNNY   35  27  72 NE7       30.02R WCI  29
6HR MIN TEMP:  31; 6HR MAX TEMP:  35;

MIDDLETON      CLEAR     34  26  71 NE3       30.02R
WATERTOWN      SUNNY     32  28  85 NE5       30.00R WCI  28
MONROE         CLEAR     32  27  80 N7        29.98R WCI  26
JANESVILLE     SUNNY     37  27  65 NE9       29.99R WCI  31
$$

WIZ051-052-058>065-066-070>072-261300-
SOUTHEAST WISCONSIN

CITY           SKY/WX    TMP DP  RH WIND       PRES   REMARKS
MILWAUKEE      MOSUNNY   38  31  76 N12       30.01R WCI  30
6HR MIN TEMP:  35; 6HR MAX TEMP:  39;

WAUKESHA       NOT AVBL
MILWAUKEE/TIMM SUNNY     34  28  80 CALM      30.01R
RACINE         SUNNY     38  33  82 N13       30.01R WCI  30
6HR MIN TEMP:  35; 6HR MAX TEMP:  38;

BURLINGTON     SUNNY     32  28  83 N3        29.99R
KENOSHA        SUNNY     36  32  85 N7        29.99R WCI  30
6HR MIN TEMP:  32; 6HR MAX TEMP:  37;

FOND DU LAC    SUNNY     37  28  70 N5        30.03R WCI  33
6HR MIN TEMP:  35; 6HR MAX TEMP:  41;

SHEBOYGAN      SUNNY     36  25  64 N7        30.01R WCI  30
6HR MIN TEMP:  32; 6HR MAX TEMP:  39;

WEST BEND      SUNNY     34  25  69 N3        30.01R
JUNEAU         SUNNY     33  26  73 N5        30.02R WCI  29
$$

LSZ147-162-261300-
LAKE SUPERIOR

STATION/POSITION TIME  TEMP    WIND        PRES    WAVE
                       AIR SEA DIR/SP/G            HT/PER
                 (UTC) (F)     (DEG/KT/KT) (MB)    (FT/S)
W MID LAKE BUOY  1050   36 34   30/ 10/ 12 1020.8R   1
DEVILS ISLAND    1100   36     330/  2/  4 1020.6R
PORT WING        1100   25     140/  3/  5 1020.0
SAXON HARBOR     1100   25        CALM     1019.6
$$

LMZ867-665-643>646-261300-
LAKE MICHIGAN

STATION/POSITION TIME  TEMP    WIND        PRES    WAVE
                       AIR SEA DIR/SP/G            HT/PER
                 (UTC) (F)     (DEG/KT/KT) (MB)    (FT/S)
CHAMBERS ISLAND  1100   36     330/  8/ 11 1016.9R
NORTHPORT PIER   1100   37     330/ 10/ 11 1016.6R
SISTER BAY       1147   39      10/ 10/ 12   N/A
KEWAUNEE LAKESHO 1100   32     310/  5/  8 1015.8R
SHEBOYGAN LAKESH 1100   37     340/ 10/ 12 1016.8R
PORT WASHINGTON  1140   37     340/  7/ 10 1016.9R
MILWAUKEE LAKESH 1100   38      10/ 15/ 18   N/A
KENOSHA   LAKESH 1100   40     360/ 11/ 13 1014.9R
$$

TC  - TEMPERATURE IN CELSIUS
VSB - VISIBILITY IN STATUTE MILES
WCI - WIND CHILL INDEX
HX  - HEAT INDEX



USA.gov is the U.S. government's official web portal to all federal, state and local government web resources and services.